sat.trackr.live / text

‹ back to catalog

STARLINK-4393

NORAD 53470 · 2022-099F

PAYLOAD ACTIVE UNKNOWN

§ Identity

Operator
Country
US
Launch date
2022-08-12
Launch site
AFWTR
Launch vehicle
Mass (kg)
RCS (m²)

Purposes: comms

External: N2YO · Heavens-Above · Gunter

§ Orbital elements

Epoch: 2026-09-20T04:00:03.000096Z

Period
94.79 min
Inclination
97.2846°
Eccentricity
0.0001825
Mean motion
15.19094675 rev/d
Perigee alt
507.3 km
Apogee alt
509.8 km
Semi-major
6,886.7 km
B*
3.7882e-3
RAAN
17.0612°
Arg perigee
113.3582°
Mean anomaly
185.8590°
Rev number
583

§ Raw data

STARLINK-43931 53470U 22099F   26263.16670139  .00080229  00000+0  37882-2 0  99932 53470  97.2846  17.0612 0001825 113.3582 185.8590 15.19094675  5832

JSON: /api/v1/satellites/53470 · /tle

For live sub-satellite position, see the globe view (requires WebGL).

§ Visibility from observer

Set your observer location to see the next 7 days of passes ≥ 10°. The values pass through the URL so the page stays shareable.

No JS? Fill the form by hand. The geolocation button needs JavaScript.